Location: Solon
(41.3849°N, 81.4081°W)
Time: 11:52:02
(UTC-04:00)

CZ-2C R/B - Visible Passes

Search period start: 23 July 2014 00:00
Search period end: 02 August 2014 00:00
Orbit: 704 x 911 km, 98.1° (Epoch: 22 July)

Date Brightness Start Highest point End Pass type
(mag) Time Alt. Az. Time Alt. Az. Time Alt. Az.
23 Jul 5.7 03:18:00 10° ESE 03:21:10 17° ENE 03:24:15 10° NNE visible
23 Jul 3.0 04:55:25 10° S 05:00:37 62° W 05:05:35 10° NNW visible
24 Jul 3.1 04:30:55 10° SSE 04:36:08 79° ENE 04:41:07 10° N visible
25 Jul 4.0 04:06:48 10° SE 04:11:43 46° ENE 04:16:26 10° N visible
26 Jul 4.9 03:43:04 10° SE 03:47:22 28° ENE 03:51:31 10° N visible
26 Jul 3.7 05:22:30 10° SSW 05:27:10 34° W 05:31:39 10° NNW visible
27 Jul 5.6 03:19:54 10° ESE 03:23:06 17° ENE 03:26:14 10° NNE visible
27 Jul 3.0 04:57:32 10° S 05:02:36 58° W 05:07:27 10° NNW visible
28 Jul 6.0 02:58:41 10° ENE 02:58:56 10° ENE 02:59:11 10° ENE visible
28 Jul 3.0 04:32:59 10° SSE 04:38:06 83° ENE 04:43:00 10° N visible
29 Jul 3.8 04:08:48 10° SE 04:13:40 49° ENE 04:18:21 10° N visible
30 Jul 4.8 03:45:02 10° SE 03:49:19 29° ENE 03:53:27 10° N visible
30 Jul 3.7 05:24:41 10° SSW 05:29:08 31° W 05:33:28 10° NW visible
31 Jul 5.5 03:21:47 10° ESE 03:25:02 18° ENE 03:28:13 10° NNE visible
31 Jul 3.1 04:59:39 10° S 05:04:34 53° W 05:09:18 10° NNW visible
01 Aug 5.9 02:59:59 10° ENE 03:00:51 10° ENE 03:01:42 10° NE visible
01 Aug 2.9 04:35:02 10° SSE 04:40:03 88° ENE 04:44:53 10° NNW visible
